Regional Weather Roundup
Issued by NWS Wakefield, VA

Home | Current Version | Previous Version | Graphics & Text | Print | Product List | Glossary On
Versions: 1 2 3 4 5 6 7 8 9 10 11 12 13 14 15 16 17 18 19 20 21 22 23 24 25 26 27 28 29 30 31 32 33 34 35 36 37 38 39 40 41 42 43 44 45 46 47 48 49 50
239
ASUS41 KAKQ 170915
RWRAKQ

REGIONAL WEATHER ROUNDUP
NATIONAL WEATHER SERVICE WAKEFIELD VA
500 AM EDT TUE OCT 17 2017

Note: "fair" indicates few or no clouds below 12,000 feet with no
significant weather and/or obstructions to visibility. * = Denotes
station may not report precipitation (e.g., rain,snow,etc.),
thunder or fog.

VAZ042-051-052>054-056-171000-
NORTHERN VIRGINIA

CITY           SKY/WX    TMP DP  RH WIND       PRES   REMARKS
WASH NATIONAL  CLEAR     49  35  58 N13       30.31R
DULLES         CLEAR     40  36  86 NW5       30.31R
FORT BELVOIR   CLEAR     42  39  90 CALM      30.31
QUANTICO       PTCLDY    47  38  71 N7        30.32R
FREDERICKSBRG* CLEAR     44  40  85 NW6       30.30R
STAFFORD*      CLEAR     36  36 100 CALM      30.35R
WARRENTON      PTCLDY    36  33  88 CALM      30.31R
CULPEPER*      CLEAR     39  36  88 CALM      30.32R
MANASSAS*      CLEAR     38  36  92 NW3       30.32R
LEESBURG*      CLEAR     43  37  81 N3        30.32R
WINCHESTER     CLEAR     37  34  87 NW3       30.31R
FRONT ROYAL*   SUNNY     36  36 100 CALM      30.31R
LURAY*         SUNNY     37  37 100 CALM      30.31R
$$

VAZ048-049-060>072-079>083-171000-
CENTRAL AND SOUTH CENTRAL VIRGINIA

CITY           SKY/WX    TMP DP  RH WIND       PRES   REMARKS
RICHMOND       CLEAR     46  38  73 N10       30.28R
CHESTERFIELD*  NOT AVBL
PETERSBURG*    CLEAR     46  37  71 N6        30.28R
HANOVER        CLEAR     46  38  73 VRB3      30.29R
TAPPAHANNOCK*  CLEAR     47  34  61 CALM      30.28R
QUINTON*       FAIR      44  39  83 NW3       30.27R
CHARLOTTSVILLE CLEAR     41  39  93 CALM      30.30R
GORDONSVILLE*  SUNNY     38  38  97 CALM      30.30R
ORANGE*        CLEAR     41  36  81 NW5       30.31R
LOUISA*        CLEAR     39  36  87 N3        30.29R
BUMPASS*       FAIR      48  38  67 N6        30.29R
FARMVILLE*     CLEAR     46  42  85 N3        30.29R
CREWE*         FAIR      45  40  82 N3        30.28R
FORT PICKETT*  FAIR      44  39  84 N6        30.28R
CHASE CITY*    FAIR      45  39  78 N3        30.28R
CLARKSVILLE*   FAIR      46  39  76 N6        30.28R
SOUTH HILL*    CLEAR     42  40  95 N6        30.33R
LAWRENCEVILLE* FAIR      45  38  78 N5        30.27R
EMPORIA*       CLEAR     41  37  87 NW7       30.28R
$$

VAZ088>098-171000-
SOUTHEAST VIRGINIA

CITY           SKY/WX    TMP DP  RH WIND       PRES   REMARKS
NORFOLK        CLEAR     58  44  60 NE18      30.22R
VIRGINIA BEACH PTCLDY    55  38  52 N10       30.21R
NORFOLK NAVAL  MOCLDY    57  42  57 NE14G24   30.24
WEST POINT*    CLEAR     45  41  84 CALM      30.28R
SALUDA*        FAIR      53  44  73 N9        30.25R
NEWPORT NEWS   CLEAR     50  42  74 N6        30.24R
LANGLEY AFB    PTCLDY    53  44  73 N5        30.23R
FORT EUSTIS    CLEAR     51  41  68 N9        30.22R
WILLIAMSBURG*  CLEAR     46  45  93 N6        30.26R
HR EXEC AP*    NOT AVBL
FRANKLIN*      CLEAR     45  40  82 N5        30.25R
US460-WAKEFLD  CLEAR     46  40  79 VRB3      30.26R
$$

VAZ020-022-025-037-045-171000-
WEST CENTRAL AND SOUTHWEST VIRGINIA

CITY           SKY/WX    TMP DP  RH WIND       PRES   REMARKS
STAUNTON*      CLEAR     34  33  96 CALM      30.33R
WAYNESBORO*    SUNNY     36  36 100 CALM      30.31R
HOT SPRINGS VA CLEAR     37  36  99 CALM      30.27S
LYNCHBURG      CLEAR     41  39  93 NW3       30.30R
DANVILLE       CLEAR     46  40  79 N3        30.29R
SOUTH BOSTON*  FAIR      40  39  95 CALM      30.29R
MARTINSVILLE   CLEAR     36  35  97 CALM      30.32R
ROANOKE        CLEAR     41  38  89 CALM      30.33R
BLACKSBURG     CLEAR     37  37  98 CALM      30.33R
DUBLIN*        CLEAR     38  37  94 CALM      30.32R
MARION*        CLEAR     35  32  90 CALM      30.34R
HILLSVILLE*    CLEAR     40  32  74 CALM      30.28S
RICHLANDS*     FAIR      38  37  92 CALM      30.32R
WISE*          CLEAR     41  41 100 CALM      30.32R
ABINGDON*      CLEAR     39  38  94 CALM      30.32R
$$

MDZ021>025-VAZ099-100-171000-
SOUTHERN MARYLAND AND THE DELMARVA PENINSULA

CITY           SKY/WX    TMP DP  RH WIND       PRES   REMARKS
PATUXENT RIVER CLEAR     51  40  65 N16       30.27R
BAY BRIDGE APT CLEAR     48  37  66 NE7       30.30R
LEONARDTOWN    NOT AVBL
DOVER          CLEAR     43  34  70 N9        30.28
GEORGETOWN     CLEAR     44  38  79 N5        30.28R
EASTON         CLEAR     44  37  74 NE5       30.33R
CAMBRIDGE      CLEAR     46  39  76 N9        30.28R
SALISBURY      CLEAR     43  40  89 N8        30.27R
OCEAN CITY     CLEAR     49  40  71 N10G20    30.26R
WALLOPS ISLAND CLEAR     45  42  89 N6        30.26R
ACCOMACK*      CLEAR     47  40  76 NE9       30.25R
$$

NCZ012>017-030>032-171000-
NORTH CENTRAL AND EASTERN NORTH CAROLINA

CITY           SKY/WX    TMP DP  RH WIND       PRES   REMARKS
ROANOKE RAPIDS FAIR      45  39  81 N5        30.25R
RALEIGH        PTCLDY    46  42  86 N3        30.27R
ELIZABETH CITY CLEAR     54  47  77 N12       30.20R
AHOSKIE*       CLEAR     45  40  83 N3        30.24R
EDENTON*       CLEAR     49  45  85 CALM      30.22R
CURRITUCK*     CLEAR     58  40  51 N9G20     30.20R HAZE
KILL DEVIL HLS MOCLDY    60  43  54 N12G20    30.16R
MANTEO         MOCLDY   N/A N/A N/A NE15G26   30.17R
CAPE HATTERAS  PTCLDY    62  48  60 NE14G29   30.14R
TARBORO*       NOT AVBL
GOLDSBORO      PTCLDY    50  41  70 N8        30.21R
WASHINGTON     CLOUDY    48  43  81 N7        30.22R
GREENVILLE     CLOUDY    45  41  87 N3        30.23R
NEW BERN       MOCLDY    51  46  83 N9        30.21R
WILMINGTON     CLEAR     53  43  68 N9        30.18R
$$

VAZ048-171000-
ELSEWHERE

CITY           SKY/WX    TMP DP  RH WIND       PRES   REMARKS
HARRISBURG PA  CLEAR     41  35  79 N5        30.30R
BALTIMORE      PTCLDY    39  38  96 CALM      30.31R
ANNAPOLIS        N/A     52  43  71 N8        30.29R
ANDREWS AFB    CLEAR     40  35  83 N3        30.29R
PHILADELPHIA   CLEAR     42  32  67 N6        30.29R
HENDERSON NC   CLEAR     43  37  79 N5        30.27R
GREENSBORO     CLEAR     45  40  82 CALM      30.28R
ROCKY MOUNT    CLEAR     48  42  80 N8        30.25R
$$

VAZ100-171000-
MARINE

STATION/POSITION TIME  TEMP    WIND        PRES    WAVE   SWELL
                       AIR SEA DIR/SP/G            HT/PER HT/PER
                 (UTC) (F)     (DEG/KT/KT) (MB)    (FT/S) (FT/S)
BRANDYWINE LGT   0842   50      10/ 25/ 30 1025.0R
CAPE MAY NJ      0842   48 66   10/  7/ 13 1024.3R
LEWES DE         0842   51 60   10/ 23/ 28 1024.8R
15NM E FENWICK I 0850   54 68  350/ 21/ 27 1023.6R   7/ 7   2/11
OCEAN-CITY-INLET 0842   53 67   20/ 12/ 19 1024.5R
WACHAPREAGUE VA  0842   49 64   10/  6/  9 1024.0R
THOMAS POINT MD  0900   53 69   10/ 18/ 21   N/A
COVE POINT MD    0842   52      40/ 18/ 22 1025.9R
SOLOMONS ISLAND  0842   52 71   30/  7/  9 1024.9R
BISHOPS HEAD MD  0842   50 63   30/ 13/ 22 1025.1R
PINEY POINT MD   0842           30/  6/  8   N/A
CAMBRIDGE MD     0842   49 67              1026.2R
LEWISETTA VA     0842   54 66   50/ 11/ 16 1024.7R
RAPPAHANNOCK LGT 0842           50/ 20/ 24 1024.3R
YORK RVR RNG VA  0842   58      10/ 14/ 17 1024.0R
YORKTOWN VA      0842   53 71  360/ 13/ 16 1023.6R
DOMINION TERM VA 0842   54      10/  7/ 10 1023.6R
KIPTOPEKE VA     0842      70   20/  7/ 10   N/A
CAPE HENRY VA    0842   58      20/ 19/ 23   N/A
WILLOUBY STN VA  0842   58      40/ 20/ 23 1023.3R
S CRANEY ISL VA  0842   58      20/ 13/ 16 1022.9R
CAPE HENRY BUOY  0830      71                N/A     6/ 7   2/12
CAPE CHARLES BUO 0851      71                N/A     5/ 6
64NM E OF VA BCH 0850   61 68   20/ 23/ 31 1021.1R   9/ 7   2/11
DUCK PIER NC     0842   62 69   20/ 24/ 30 1021.2R
44100 DUCK FRF   0835      71                N/A     9/ 7   2/11
44056 DUCK FRF   0800      71                N/A     8/ 7   2/11
OREGON INLET NC  0842   62 70   20/ 20/ 26 1021.0R
HATTERAS NC      0842   63 71   30/ 18/ 27 1020.4R
DIAMOND SHLS NC  0850   66 81   20/ 27/ 35 1018.7R   9/ 8   3/11
CAPE LOOKOUT NC  0900   61      10/ 22/ 24 1020.2R
$$




USA.gov is the U.S. government's official web portal to all federal, state and local government web resources and services.